This is the latest recevied weather packets stored in our database for station/object YO8SDE-8. If no packets are shown the sender has not sent any weather packets the latest 1 day(s).
| Time | Temp. | Humidity | Pressure | Rain* | Wind** | Luminosity | Snow |
|---|---|---|---|---|---|---|---|
| 1777999259 | 25° C | 29% | 999.1 hPa | 0 mm | 0 m/s | - | - |
| 1777998959 | 25.56° C | 28% | 999 hPa | 0 mm | 1.79 m/s, 135° | - | - |
| 1777998659 | 26.11° C | 27% | 999.1 hPa | 0 mm | 1.34 m/s, 135° | - | - |
| 1777998359 | 26.67° C | 27% | 999 hPa | 0 mm | 2.24 m/s, 112° | - | - |
| 1777998059 | 27.78° C | 26% | 999.1 hPa | 0 mm | 1.79 m/s, 112° | - | - |
| 1777997759 | 28.33° C | 26% | 999 hPa | 0 mm | 0.89 m/s, 112° | - | - |
| 1777997459 | 28.89° C | 25% | 999 hPa | 0 mm | 0 m/s | - | - |
| 1777997159 | 29.44° C | 23% | 999.1 hPa | 0 mm | 1.79 m/s, 135° | - | - |
| 1777996860 | 30° C | 22% | 999 hPa | 0 mm | 2.68 m/s, 112° | - | - |
| 1777996559 | 30.56° C | 22% | 999.1 hPa | 0 mm | 0.45 m/s, 112° | - | - |
| 1777996259 | 30.56° C | 22% | 999.2 hPa | 0 mm | 1.34 m/s, 135° | - | - |
| 1777995959 | 30.56° C | 22% | 999.1 hPa | 0 mm | 0.89 m/s, 112° | - | - |
| 1777995659 | 31.11° C | 21% | 998.8 hPa | 0 mm | 1.79 m/s, 112° | - | - |
| 1777995360 | 31.67° C | 21% | 998.9 hPa | 0 mm | 4.47 m/s, 135° | - | - |
| 1777995060 | 32.22° C | 20% | 999.2 hPa | 0 mm | 0.89 m/s, 112° | - | - |
| 1777994760 | 32.22° C | 20% | 999.2 hPa | 0 mm | 0 m/s | - | - |
| 1777994459 | 32.22° C | 19% | 999.2 hPa | 0 mm | 0 m/s | - | - |
| 1777994160 | 32.78° C | 19% | 999.2 hPa | 0 mm | 1.79 m/s, 112° | - | - |
| 1777993859 | 33.33° C | 19% | 999.1 hPa | 0 mm | 1.34 m/s, 112° | - | - |
| 1777993560 | 33.33° C | 19% | 999.3 hPa | 0 mm | 1.34 m/s, 90° | - | - |
| 1777993260 | 33.89° C | 18% | 999.3 hPa | 0 mm | 0.89 m/s, 112° | - | - |
| 1777992960 | 33.89° C | 18% | 999.4 hPa | 0 mm | 1.79 m/s, 112° | - | - |
| 1777992660 | 34.44° C | 18% | 999.3 hPa | 0 mm | 2.24 m/s, 90° | - | - |
| 1777992360 | 34.44° C | 18% | 999.4 hPa | 0 mm | 1.34 m/s, 45° | - | - |
| 1777992060 | 35° C | 18% | 999.5 hPa | 0 mm | 2.24 m/s, 112° | - | - |
* Rain latest hour (hover to see other rain measurements)
** Current wind speed in m/s (hover to see current wind gust speed)